Time,TemperatureF,DewpointF,PressureIn,WindDirection,WindDirectionDegrees,WindSpeedMPH,WindSpeedGustMPH,Humidity,HourlyPrecipIn,Conditions,Clouds,dailyrainin,SoftwareType,DateUTC
2013-01-24 00:22:00,62.0,40.0,30.01,North,0,0.0,-999.0,44,0.00,,,-99.99,,2013-01-24 08:22:00,
2013-01-24 00:32:00,62.0,40.0,30.01,North,0,0.0,-999.0,44,0.00,,,-99.99,,2013-01-24 08:32:00,
2013-01-24 00:42:00,62.0,40.0,30.01,North,0,0.0,-999.0,44,0.00,,,-99.99,,2013-01-24 08:42:00,
2013-01-24 00:52:00,62.0,40.0,30.01,North,0,0.0,-999.0,44,0.00,,,-99.99,,2013-01-24 08:52:00,
2013-01-24 01:22:00,61.0,36.0,29.99,North,0,0.0,-999.0,40,0.00,,,-99.99,,2013-01-24 09:22:00,
2013-01-24 01:33:00,61.0,36.0,29.99,North,0,0.0,-999.0,40,0.00,,,-99.99,,2013-01-24 09:33:00,
2013-01-24 01:42:00,61.0,36.0,29.99,North,0,0.0,-999.0,40,0.00,,,-99.99,,2013-01-24 09:42:00,
2013-01-24 01:52:00,61.0,36.0,29.99,North,0,0.0,-999.0,40,0.00,,,-99.99,,2013-01-24 09:52:00,
2013-01-24 02:22:00,63.0,33.0,29.99,North,0,0.0,-999.0,33,0.00,,,-99.99,,2013-01-24 10:22:00,
2013-01-24 02:33:00,63.0,33.0,29.99,North,0,0.0,-999.0,33,0.00,,,-99.99,,2013-01-24 10:33:00,
2013-01-24 02:42:00,63.0,33.0,29.99,North,0,0.0,-999.0,33,0.00,,,-99.99,,2013-01-24 10:42:00,
2013-01-24 02:52:00,63.0,33.0,29.99,North,0,0.0,-999.0,33,0.00,,,-99.99,,2013-01-24 10:52:00,
2013-01-24 03:22:00,62.0,36.0,30.01,North,0,0.0,-999.0,38,0.00,,,-99.99,,2013-01-24 11:22:00,
2013-01-24 03:33:00,62.0,36.0,30.01,North,0,0.0,-999.0,38,0.00,,,-99.99,,2013-01-24 11:33:00,
2013-01-24 03:42:00,62.0,36.0,30.01,North,0,0.0,-999.0,38,0.00,,,-99.99,,2013-01-24 11:42:00,
2013-01-24 03:52:00,62.0,36.0,30.01,North,0,0.0,-999.0,38,0.00,,,-99.99,,2013-01-24 11:52:00,
2013-01-24 04:22:00,61.0,36.0,29.99,North,0,0.0,-999.0,40,0.00,,,-99.99,,2013-01-24 12:22:00,
2013-01-24 04:33:00,61.0,36.0,29.99,North,0,0.0,-999.0,40,0.00,,,-99.99,,2013-01-24 12:33:00,
2013-01-24 04:42:00,61.0,36.0,29.99,North,0,0.0,-999.0,40,0.00,,,-99.99,,2013-01-24 12:42:00,
2013-01-24 04:52:00,61.0,36.0,29.99,North,0,0.0,-999.0,40,0.00,,,-99.99,,2013-01-24 12:52:00,
2013-01-24 05:22:00,61.0,39.0,30.00,North,0,0.0,-999.0,44,0.00,,,-99.99,,2013-01-24 13:22:00,
2013-01-24 05:33:00,61.0,39.0,30.00,North,0,0.0,-999.0,44,0.00,,,-99.99,,2013-01-24 13:33:00,
2013-01-24 05:42:00,61.0,39.0,30.00,North,0,0.0,-999.0,44,0.00,,,-99.99,,2013-01-24 13:42:00,
2013-01-24 05:52:00,61.0,39.0,30.00,North,0,0.0,-999.0,44,0.00,,,-99.99,,2013-01-24 13:52:00,
2013-01-24 06:22:00,61.0,40.0,30.03,North,0,0.0,-999.0,45,0.00,,,-99.99,,2013-01-24 14:22:00,
2013-01-24 06:33:00,61.0,40.0,30.03,North,0,0.0,-999.0,45,0.00,,,-99.99,,2013-01-24 14:33:00,
2013-01-24 06:43:00,61.0,40.0,30.03,North,0,0.0,-999.0,45,0.00,,,-99.99,,2013-01-24 14:43:00,
2013-01-24 06:53:00,61.0,40.0,30.03,North,0,0.0,-999.0,45,0.00,,,-99.99,,2013-01-24 14:53:00,
2013-01-24 07:22:00,60.0,39.0,30.06,North,0,0.0,-999.0,46,0.00,,,-99.99,,2013-01-24 15:22:00,
2013-01-24 07:33:00,60.0,39.0,30.06,North,0,0.0,-999.0,46,0.00,,,-99.99,,2013-01-24 15:33:00,
2013-01-24 07:43:00,60.0,39.0,30.06,North,0,0.0,-999.0,46,0.00,,,-99.99,,2013-01-24 15:43:00,
2013-01-24 07:52:00,60.0,39.0,30.06,North,0,0.0,-999.0,46,0.00,,,-99.99,,2013-01-24 15:52:00,
2013-01-24 08:22:00,60.0,41.0,30.08,North,10,2.0,-999.0,50,0.00,,,-99.99,,2013-01-24 16:22:00,
2013-01-24 08:33:00,60.0,41.0,30.08,North,10,2.0,-999.0,50,0.00,,,-99.99,,2013-01-24 16:33:00,
2013-01-24 08:42:00,60.0,41.0,30.08,North,10,2.0,-999.0,50,0.00,,,-99.99,,2013-01-24 16:42:00,
2013-01-24 09:32:00,62.0,38.0,30.11,North,0,0.0,-999.0,41,0.00,,,-99.99,,2013-01-24 17:32:00,
2013-01-24 09:42:00,62.0,38.0,30.11,North,0,0.0,-999.0,41,0.00,,,-99.99,,2013-01-24 17:42:00,
2013-01-24 09:52:00,62.0,38.0,30.11,North,0,0.0,-999.0,41,0.00,,,-99.99,,2013-01-24 17:52:00,
2013-01-24 10:22:00,64.0,40.0,30.13,North,0,0.0,-999.0,42,0.00,,,-99.99,,2013-01-24 18:22:00,
2013-01-24 10:32:00,64.0,40.0,30.13,North,0,0.0,-999.0,42,0.00,,,-99.99,,2013-01-24 18:32:00,
2013-01-24 10:42:00,64.0,40.0,30.13,North,0,0.0,-999.0,42,0.00,,,-99.99,,2013-01-24 18:42:00,
2013-01-24 10:52:00,64.0,40.0,30.13,North,0,0.0,-999.0,42,0.00,,,-99.99,,2013-01-24 18:52:00,
2013-01-24 11:22:00,65.0,41.0,30.13,NW,320,3.0,-999.0,41,0.00,,,-99.99,,2013-01-24 19:22:00,
2013-01-24 11:32:00,65.0,41.0,30.13,NW,320,3.0,-999.0,41,0.00,,,-99.99,,2013-01-24 19:32:00,
2013-01-24 11:42:00,65.0,41.0,30.13,NW,320,3.0,-999.0,41,0.00,,,-99.99,,2013-01-24 19:42:00,
2013-01-24 11:51:00,65.0,41.0,30.13,NW,320,3.0,-999.0,41,0.00,,,-99.99,,2013-01-24 19:51:00,
2013-01-24 12:22:00,68.0,46.0,30.11,NNW,330,4.0,-999.0,45,0.00,,,-99.99,,2013-01-24 20:22:00,
2013-01-24 12:32:00,68.0,46.0,30.11,NNW,330,4.0,-999.0,45,0.00,,,-99.99,,2013-01-24 20:32:00,
2013-01-24 12:42:00,68.0,46.0,30.11,NNW,330,4.0,-999.0,45,0.00,,,-99.99,,2013-01-24 20:42:00,
2013-01-24 12:52:00,68.0,46.0,30.11,NNW,330,4.0,-999.0,45,0.00,,,-99.99,,2013-01-24 20:52:00,
2013-01-24 13:22:00,70.0,45.0,30.07,North,10,3.0,-999.0,40,0.00,,,-99.99,,2013-01-24 21:22:00,
2013-01-24 13:33:00,70.0,45.0,30.07,North,10,3.0,-999.0,40,0.00,,,-99.99,,2013-01-24 21:33:00,
2013-01-24 13:42:00,70.0,45.0,30.07,North,10,3.0,-999.0,40,0.00,,,-99.99,,2013-01-24 21:42:00,
2013-01-24 13:52:00,70.0,45.0,30.07,North,10,3.0,-999.0,40,0.00,,,-99.99,,2013-01-24 21:52:00,
2013-01-24 14:22:00,72.0,45.0,30.06,North,0,0.0,-999.0,38,0.00,,,-99.99,,2013-01-24 22:22:00,
2013-01-24 14:32:00,72.0,45.0,30.06,North,0,0.0,-999.0,38,0.00,,,-99.99,,2013-01-24 22:32:00,
2013-01-24 14:42:00,72.0,45.0,30.06,North,0,0.0,-999.0,38,0.00,,,-99.99,,2013-01-24 22:42:00,
2013-01-24 14:52:00,72.0,45.0,30.06,North,0,0.0,-999.0,38,0.00,,,-99.99,,2013-01-24 22:52:00,
2013-01-24 15:22:00,72.0,44.0,30.04,North,0,0.0,-999.0,37,0.00,,,-99.99,,2013-01-24 23:22:00,
2013-01-24 15:32:00,72.0,44.0,30.04,North,0,0.0,-999.0,37,0.00,,,-99.99,,2013-01-24 23:32:00,
2013-01-24 15:42:00,72.0,44.0,30.04,North,0,0.0,-999.0,37,0.00,,,-99.99,,2013-01-24 23:42:00,
2013-01-24 15:52:00,72.0,44.0,30.04,North,0,0.0,-999.0,37,0.00,,,-99.99,,2013-01-24 23:52:00,
2013-01-24 16:22:00,73.0,43.0,30.05,North,0,0.0,-999.0,34,0.00,,,-99.99,,2013-01-25 00:22:00,
2013-01-24 16:32:00,73.0,43.0,30.05,North,0,0.0,-999.0,34,0.00,,,-99.99,,2013-01-25 00:32:00,
2013-01-24 16:41:00,73.0,43.0,30.05,North,0,0.0,-999.0,34,0.00,,,-99.99,,2013-01-25 00:41:00,
2013-01-24 16:51:00,73.0,43.0,30.05,North,0,0.0,-999.0,34,0.00,,,-99.99,,2013-01-25 00:51:00,
2013-01-24 17:21:00,70.0,43.0,30.07,North,0,0.0,-999.0,37,0.00,,,-99.99,,2013-01-25 01:21:00,
2013-01-24 17:32:00,70.0,43.0,30.07,North,0,0.0,-999.0,37,0.00,,,-99.99,,2013-01-25 01:32:00,
2013-01-24 17:42:00,70.0,43.0,30.07,North,0,0.0,-999.0,37,0.00,,,-99.99,,2013-01-25 01:42:00,
2013-01-24 17:52:00,70.0,43.0,30.07,North,0,0.0,-999.0,37,0.00,,,-99.99,,2013-01-25 01:52:00,
2013-01-24 18:22:00,68.0,46.0,30.07,North,0,0.0,-999.0,45,0.00,,,-99.99,,2013-01-25 02:22:00,
2013-01-24 18:32:00,68.0,46.0,30.07,North,0,0.0,-999.0,45,0.00,,,-99.99,,2013-01-25 02:32:00,
2013-01-24 18:42:00,68.0,46.0,30.07,North,0,0.0,-999.0,45,0.00,,,-99.99,,2013-01-25 02:42:00,
2013-01-24 18:52:00,68.0,46.0,30.07,North,0,0.0,-999.0,45,0.00,,,-99.99,,2013-01-25 02:52:00,
2013-01-24 19:22:00,65.0,46.0,30.08,North,0,0.0,-999.0,51,0.00,,,-99.99,,2013-01-25 03:22:00,
2013-01-24 19:32:00,65.0,46.0,30.08,North,0,0.0,-999.0,51,0.00,,,-99.99,,2013-01-25 03:32:00,
2013-01-24 19:41:00,65.0,46.0,30.08,North,0,0.0,-999.0,51,0.00,,,-99.99,,2013-01-25 03:41:00,
2013-01-24 19:52:00,65.0,46.0,30.08,North,0,0.0,-999.0,51,0.00,,,-99.99,,2013-01-25 03:52:00,
2013-01-24 20:22:00,63.0,47.0,30.09,North,0,0.0,-999.0,55,0.00,,,-99.99,,2013-01-25 04:22:00,
2013-01-24 20:32:00,63.0,47.0,30.09,North,0,0.0,-999.0,55,0.00,,,-99.99,,2013-01-25 04:32:00,
2013-01-24 20:41:00,63.0,47.0,30.09,North,0,0.0,-999.0,55,0.00,,,-99.99,,2013-01-25 04:41:00,
2013-01-24 20:51:00,63.0,47.0,30.09,North,0,0.0,-999.0,55,0.00,,,-99.99,,2013-01-25 04:51:00,
2013-01-24 21:22:00,61.0,47.0,30.09,North,0,0.0,-999.0,60,0.00,,,-99.99,,2013-01-25 05:22:00,
2013-01-24 21:32:00,61.0,47.0,30.09,North,0,0.0,-999.0,60,0.00,,,-99.99,,2013-01-25 05:32:00,
2013-01-24 21:43:00,61.0,47.0,30.09,North,0,0.0,-999.0,60,0.00,,,-99.99,,2013-01-25 05:43:00,
2013-01-24 21:52:00,61.0,47.0,30.09,North,0,0.0,-999.0,60,0.00,,,-99.99,,2013-01-25 05:52:00,
2013-01-24 22:21:00,61.0,47.0,30.10,North,0,0.0,-999.0,60,0.00,,,-99.99,,2013-01-25 06:21:00,
2013-01-24 22:32:00,61.0,47.0,30.10,North,0,0.0,-999.0,60,0.00,,,-99.99,,2013-01-25 06:32:00,
2013-01-24 22:41:00,61.0,47.0,30.10,North,0,0.0,-999.0,60,0.00,,,-99.99,,2013-01-25 06:41:00,
2013-01-24 22:51:00,61.0,47.0,30.10,North,0,0.0,-999.0,60,0.00,,,-99.99,,2013-01-25 06:51:00,
2013-01-24 23:21:00,61.0,50.0,30.11,North,0,0.0,-999.0,66,0.00,,,-99.99,,2013-01-25 07:21:00,
2013-01-24 23:31:00,61.0,50.0,30.11,North,0,0.0,-999.0,66,0.00,,,-99.99,,2013-01-25 07:31:00,
2013-01-24 23:41:00,61.0,50.0,30.11,North,0,0.0,-999.0,66,0.00,,,-99.99,,2013-01-25 07:41:00,
2013-01-24 23:51:00,61.0,50.0,30.11,North,0,0.0,-999.0,66,0.00,,,-99.99,,2013-01-25 07:51:00,